[[{"header":{"parameterUnit":"m.s-1","parameterCategory":2,"la1":30.2991,"la2":30.254,"lo1":-89.0895,"lo2":-89.0444,"dy":0.0017,"dx":0.0017,"nx":28,"ny":28,"refTime":"2025-08-14T21:00:00:Z","depth":"0","parameterNumber":2,"parameterNumberName":"U-component_of_CURRENTS"},"data":[0,0,0,0,0,0,0,0,0,0,0,0,0,0,0,0,0,0,0,0,0,0,0,0,0,0,0,0,0,0,0,0,0,0,0,0,0,0,0,0,0,0,0,0,0,0,0,0,0,0,0,0,0,0,0,0,0,0,0.3011,0.3011,0,0.3009,0.3009,0.3009,0.3005,0.3005,0.3005,0.3005,0.302,0.3021,0.3021,0,0,0,0,0,0,0,0,0,0,0,0,0,0.2826,0.283,0.3011,0.3012,0.3012,0.301,0.3009,0.3009,0.3005,0.3005,0.3005,0.3005,0.302,0.3021,0.3021,0,0,0,0,0,0,0,0,0,0,0,0,0,0.2871,0.2832,0.3011,0.3011,0.3012,0.301,0.3009,0.3009,0.3004,0.3005,0.3005,0.3005,0.302,0.3021,0.3021,0.3018,0,0,0.3022,0.3022,0,0,0,0,0,0,0,0,0.2869,0.2878,0.3011,0.3011,0.3012,0.301,0.2949,0.3014,0.3004,0.3004,0.3005,0.3005,0.302,0.3021,0.3015,0.3019,0.3019,0.3022,0.3022,0.3022,0.3023,0,0,0,0,0,0,0,0.2866,0.2877,0.3008,0.3011,0.3012,0.2948,0.2957,0.296,0.3009,0.3004,0.3005,0.3009,0.302,0.3015,0.3016,0.3019,0.3022,0.3022,0.3023,0.3023,0.2988,0.2987,0,0,0,0,0,0,0.2883,0.2875,0.3008,0.3008,0.2943,0.2953,0.2961,0.3008,0.3008,0.3009,0.3009,0.3009,0.3014,0.3015,0.3016,0.2986,0.3022,0.3023,0.3023,0.2989,0.2988,0.2987,0,0,0,0,0,0,0.2879,0.2896,0.3008,0.294,0.2951,0.2957,0.3008,0.3008,0.3,0.3012,0.3013,0.3002,0.3014,0.3016,0.3007,0.2988,0.3023,0.3023,0.2991,0.2989,0.2988,0.2944,0,0,0,0,0,0,0.2875,0.2896,0.2924,0.2944,0.2955,0.2993,0.3008,0.3008,0.3004,0.3004,0.3007,0.3008,0.3015,0.3006,0.3007,0.2989,0.3024,0.2992,0.299,0.2988,0.2947,0.2941,0.2936,0,0,0,0,0,0.2869,0.2886,0.2927,0.2941,0.3,0.2993,0.2991,0.2993,0.3004,0.2989,0.2993,0.3008,0.2993,0.3006,0.3007,0.2989,0.2993,0.2991,0.2988,0.2949,0.2942,0.2936,0,0,0,0,0,0,0.2789,0.2889,0.2933,0.2975,0.2987,0.2993,0.2971,0.299,0.2981,0.298,0.2997,0.2998,0.2987,0.299,0.3004,0.2971,0.2995,0.2992,0.2964,0.2958,0.2953,0.2939,0.3024,0,0,0,0,0,0.28,0.2854,0.2914,0.2938,0.2948,0.2967,0.2963,0.2972,0.2973,0.2969,0.2975,0.2976,0.2977,0.297,0.2973,0.2952,0.2958,0.294,0.2934,0.293,0.2918,0.2936,0.2932,0.2979,0.2979,0.2979,0,0,0.2773,0.2831,0.2861,0.2926,0.2933,0.2923,0.2962,0.295,0.2934,0.2973,0.2939,0.2964,0.2971,0.295,0.2944,0.2949,0.2911,0.2927,0.2923,0.2914,0.2933,0.2929,0.2925,0.2977,0.2977,0.2977,0,0,0.2706,0.28,0.2809,0.2828,0.2856,0.2874,0.2875,0.2892,0.2892,0.288,0.2905,0.2914,0.2906,0.2908,0.2909,0.2873,0.2892,0.2875,0.2826,0.2843,0.284,0.2837,0.2806,0.2801,0.2861,0.2861,0.2861,0,0.265,0.271,0.2793,0.2786,0.279,0.2852,0.2826,0.2832,0.284,0.2841,0.2858,0.2866,0.2881,0.2863,0.2851,0.2861,0.2862,0.2853,0.2838,0.2835,0.2833,0.2803,0.2798,0.2859,0.2859,0.2859,0.2859,0,0.2602,0.2633,0.262,0.2666,0.2673,0.2659,0.2699,0.2702,0.2728,0.2746,0.2749,0.2776,0.2782,0.279,0.2809,0.2798,0.2799,0.2841,0.2857,0.2826,0.2795,0.2791,0.2855,0.2856,0.2857,0.2857,0,0,0.2486,0.2576,0.2565,0.2579,0.2619,0.2617,0.26,0.2613,0.261,0.2633,0.2623,0.2641,0.2686,0.269,0.2726,0.2738,0.2722,0.2777,0.2779,0.2749,0.2726,0.2563,0.2543,0.2773,0.2773,0.2773,0.2699,0,0.2404,0.2405,0.2462,0.2426,0.2428,0.2487,0.2471,0.2495,0.2525,0.2533,0.2581,0.2589,0.2638,0.2653,0.2673,0.2727,0.2714,0.2735,0.2758,0.2757,0.262,0.2534,0.2376,0.2284,0.2695,0.2694,0.2694,0,0.2331,0.2349,0.233,0.2359,0.236,0.2343,0.2365,0.2362,0.24,0.2425,0.2455,0.2505,0.2525,0.2582,0.2622,0.2639,0.2666,0.2699,0.2698,0.2559,0.2585,0.2387,0.2261,0.2188,0.2687,0.2688,0.2688,0,0.2253,0.2246,0.2245,0.2253,0.2291,0.2278,0.2291,0.2325,0.2331,0.2363,0.2375,0.2418,0.244,0.2496,0.2554,0.2598,0.2589,0.2661,0.2524,0.2512,0.2383,0.2359,0.2189,0.2666,0.2666,0.2666,0.2666,0,0.2186,0.217,0.2209,0.2212,0.218,0.2221,0.2198,0.2224,0.2252,0.2259,0.232,0.2327,0.2428,0.2444,0.2509,0.2465,0.2545,0.2474,0.2473,0.2356,0.2331,0.2269,0.2279,0.2663,0.2664,0.2664,0.2665,0,0.2144,0.2169,0.2155,0.2167,0.2158,0.2144,0.215,0.2145,0.2175,0.2184,0.2191,0.2249,0.2267,0.2322,0.239,0.2369,0.228,0.2342,0.216,0.2136,0.1917,0.1931,0.1729,0.1702,0.2163,0.2159,0.2155,0,0.2154,0.2144,0.2126,0.2109,0.2115,0.2094,0.2083,0.2105,0.2108,0.2138,0.2139,0.2145,0.2148,0.2122,0.2086,0.2068,0.2111,0.1888,0.1932,0.1822,0.1842,0.1849,0.1846,0.1746,0.1739,0.1734,0.1729,0,0.2172,0.2156,0.2166,0.2089,0.2059,0.203,0.2018,0.2004,0.2036,0.2028,0.202,0.2014,0.1952,0.1827,0.1748,0.1751,0.1746,0.1766,0.1725,0.152,0.1449,0.1449,0.1862,0.1678,0.1684,0.1687,0.169,0.1692,0.2203,0.2184,0.2159,0.2072,0.2032,0.1969,0.1929,0.1921,0.1893,0.1855,0.1892,0.1799,0.1636,0.1497,0.1462,0.1232,0.139,0.119,0.1221,0.1244,0.1173,0.142,0.1195,0.1197,0.1199,0.12,0.1202,0,0.2213,0.218,0.213,0.2026,0.1948,0.1931,0.1882,0.1828,0.1764,0.1704,0.1657,0.1403,0.1209,0.1085,0.0801,0.0694,0.0749,0.0686,0.07,0.0739,0.0999,0.0936,0.0554,0.0554,0.0554,0.0554,0.0554,0.0554,0.2232,0.2183,0.2109,0.1953,0.1881,0.1759,0.172,0.1643,0.157,0.1361,0.1172,0.109,0.0886,0.0568,0.0338,0.0333,0.0366,0.0275,0.0399,0.0608,0.066,0.071,0.065,0.0215,0.0214,0.0095,0.0093,0.0092]},{"header":{"parameterUnit":"m.s-1","parameterCategory":2,"la1":30.2991,"la2":30.254,"lo1":-89.0895,"lo2":-89.0444,"dy":0.0017,"dx":0.0017,"nx":28,"ny":28,"refTime":"2025-08-14T21:00:00:Z","depth":"0","parameterNumber":3,"parameterNumberName":"V-component_of_CURRENTS"},"data":[0,0,0,0,0,0,0,0,0,0,0,0,0,0,0,0,0,0,0,0,0,0,0,0,0,0,0,0,0,0,0,0,0,0,0,0,0,0,0,0,0,0,0,0,0,0,0,0,0,0,0,0,0,0,0,0,0,0,-0.0029,-0.0028,0,0.0048,0.0049,0.005,0.0086,0.0085,0.0085,0.0085,0.0199,0.0202,0.0205,0,0,0,0,0,0,0,0,0,0,0,0,0,-0.0116,-0.0115,-0.0029,-0.0028,-0.0027,0.0047,0.0049,0.005,0.0086,0.0085,0.0085,0.0085,0.0198,0.0202,0.0206,0,0,0,0,0,0,0,0,0,0,0,0,0,-0.0061,-0.0114,-0.0029,-0.0002,0.0001,0.0047,0.0049,0.005,0.0086,0.0085,0.0085,0.0085,0.0197,0.0201,0.0206,0.0243,0,0,0.0221,0.0223,0,0,0,0,0,0,0,0,-0.0064,-0.0057,-0.0006,-0.0004,-0.0,0.0055,0.006,0.0116,0.0086,0.0056,0.0085,0.0085,0.0153,0.0162,0.0179,0.0249,0.0254,0.0222,0.0225,0.0227,0.0228,0,0,0,0,0,0,0,-0.0068,-0.006,0.0004,-0.0006,-0.0002,0.0016,0.0023,0.0071,0.0108,0.0058,0.0061,0.0066,0.0155,0.0174,0.0182,0.0255,0.0221,0.0226,0.0229,0.0231,0.0383,0.0384,0,0,0,0,0,0,-0.0082,-0.0064,0.0001,0.0006,-0.0036,0.0017,0.0026,0.0039,0.0107,0.0116,0.0066,0.0067,0.0166,0.0176,0.0186,0.0256,0.0227,0.0231,0.0234,0.0382,0.0383,0.0384,0,0,0,0,0,0,-0.0084,-0.0077,-0.0002,-0.003,-0.0019,0.0019,0.0034,0.0041,0.006,0.0112,0.0122,0.0077,0.0166,0.018,0.0239,0.026,0.0233,0.0238,0.038,0.0382,0.0384,0.0381,0,0,0,0,0,0,-0.0087,-0.0078,-0.0072,-0.003,-0.0018,0.0033,0.0034,0.0043,0.0062,0.0065,0.0125,0.0135,0.0167,0.0231,0.0244,0.0266,0.0242,0.0379,0.0381,0.0383,0.038,0.0382,0.0385,0,0,0,0,0,-0.009,-0.0072,-0.0072,-0.0064,-0.0011,0.0034,0.0043,0.0069,0.0063,0.0082,0.012,0.0133,0.0253,0.0237,0.0251,0.0275,0.0378,0.0381,0.0383,0.0379,0.0382,0.0385,0,0,0,0,0,0,-0.0102,-0.0066,-0.0065,-0.0036,-0.0005,0.0039,0.006,0.0067,0.0112,0.0114,0.0153,0.0167,0.0226,0.0252,0.0232,0.0324,0.0316,0.0321,0.0307,0.0311,0.0313,0.0302,0.0246,0,0,0,0,0,-0.0106,-0.0085,-0.005,-0.0028,-0.0011,0.0019,0.0038,0.0056,0.0097,0.0115,0.0153,0.0199,0.0249,0.0278,0.0327,0.038,0.0387,0.0403,0.0405,0.0407,0.0408,0.0434,0.0439,0.0392,0.0392,0.0392,0,0,-0.0103,-0.0084,-0.0071,-0.003,-0.0004,0.0035,0.0032,0.0067,0.0098,0.0122,0.0179,0.0212,0.0265,0.0326,0.0354,0.0349,0.0424,0.041,0.0412,0.0412,0.0437,0.0442,0.0445,0.0394,0.0394,0.0394,0,0,-0.0079,-0.0071,-0.004,-0.0014,0.0022,0.0045,0.0052,0.0097,0.0117,0.017,0.0195,0.0235,0.0313,0.0352,0.0382,0.0427,0.0436,0.0443,0.0451,0.0476,0.048,0.0483,0.0492,0.0496,0.0445,0.0445,0.0445,0,-0.0075,-0.0033,-0.0024,0.0013,0.004,0.0049,0.0093,0.0117,0.0172,0.0194,0.019,0.0289,0.0326,0.0397,0.0411,0.0433,0.0442,0.0433,0.0477,0.0481,0.0484,0.0493,0.0497,0.0445,0.0445,0.0445,0.0445,0,-0.0021,0.0009,0.0032,0.0079,0.0102,0.0146,0.0172,0.0197,0.0209,0.0232,0.0291,0.0332,0.0387,0.0405,0.0425,0.0474,0.047,0.0474,0.0464,0.0488,0.0496,0.0501,0.0445,0.0445,0.0445,0.0445,0,0,0.0023,0.0064,0.0076,0.0102,0.0145,0.0176,0.0213,0.0263,0.0288,0.0318,0.0357,0.0421,0.0418,0.0451,0.0472,0.0491,0.0517,0.0491,0.0492,0.0489,0.0563,0.0539,0.0542,0.0528,0.0529,0.0529,0.0556,0,0.0077,0.0146,0.0153,0.0221,0.0264,0.0269,0.0304,0.0334,0.0354,0.0389,0.0407,0.0452,0.0443,0.0464,0.0482,0.0517,0.0531,0.0509,0.0549,0.055,0.0518,0.0547,0.0565,0.0588,0.056,0.0561,0.0562,0,0.0149,0.0183,0.0253,0.0294,0.0314,0.0341,0.0389,0.0419,0.0448,0.046,0.048,0.0489,0.0525,0.0504,0.0553,0.054,0.0549,0.0562,0.0563,0.0546,0.0536,0.0563,0.0598,0.0651,0.0569,0.0568,0.0568,0,0.02,0.0262,0.0316,0.0335,0.0376,0.0396,0.0416,0.0444,0.0466,0.0495,0.0504,0.054,0.0554,0.0575,0.0582,0.0576,0.0623,0.0621,0.0605,0.0602,0.0628,0.0626,0.0711,0.0648,0.0648,0.0648,0.0648,0,0.0274,0.0322,0.0337,0.0371,0.0422,0.043,0.0477,0.0493,0.0511,0.0532,0.0534,0.0548,0.057,0.0589,0.0599,0.0612,0.0635,0.061,0.0613,0.0626,0.0624,0.0679,0.0686,0.0649,0.0648,0.0648,0.0648,0,0.033,0.0351,0.0404,0.0436,0.0448,0.0477,0.0501,0.0524,0.0534,0.0554,0.0558,0.0567,0.0583,0.0597,0.0634,0.063,0.0675,0.0646,0.0647,0.0649,0.0676,0.0681,0.0724,0.0769,0.0641,0.064,0.064,0,0.0371,0.04,0.0436,0.0452,0.0465,0.0501,0.052,0.0538,0.0548,0.0559,0.0564,0.0578,0.0588,0.0623,0.0629,0.0645,0.067,0.0658,0.0648,0.0686,0.0695,0.0686,0.0721,0.0682,0.0682,0.0682,0.0682,0,0.0426,0.0425,0.045,0.0472,0.0494,0.0524,0.0542,0.0557,0.0564,0.0579,0.058,0.0591,0.0605,0.0632,0.0641,0.0646,0.0698,0.0657,0.0716,0.0748,0.0728,0.077,0.0643,0.0683,0.0683,0.0683,0.0683,0.0683,0.0447,0.0451,0.0457,0.0475,0.0499,0.0514,0.0533,0.0553,0.0573,0.0597,0.0602,0.0647,0.0671,0.0686,0.0691,0.0719,0.0695,0.0733,0.074,0.0729,0.0767,0.0623,0.065,0.065,0.065,0.0649,0.0649,0,0.0439,0.0433,0.0454,0.0462,0.0467,0.0489,0.0519,0.0535,0.0556,0.0634,0.066,0.0731,0.0772,0.0791,0.0797,0.0818,0.0839,0.083,0.0854,0.0891,0.0793,0.0791,0.0827,0.0827,0.0827,0.0827,0.0826,0.0826,0.0434,0.0424,0.0417,0.041,0.0419,0.0428,0.0442,0.0493,0.056,0.0661,0.074,0.0805,0.0837,0.085,0.0914,0.093,0.0998,0.0945,0.0991,0.0951,0.0944,0.0937,0.094,0.1007,0.1007,0.1111,0.1112,0.1113]}],[{"header":{"parameterUnit":"m.s-1","parameterCategory":2,"la1":30.2991,"la2":30.254,"lo1":-89.0895,"lo2":-89.0444,"dy":0.0017,"dx":0.0017,"nx":28,"ny":28,"refTime":"2025-08-14T21:00:00:Z","depth":"2","parameterNumber":2,"parameterNumberName":"U-component_of_CURRENTS"},"data":[0,0,0,0,0,0,0,0,0,0,0,0,0,0,0,0,0,0,0,0,0,0,0,0,0,0,0,0,0,0,0,0,0,0,0,0,0,0,0,0,0,0,0,0,0,0,0,0,0,0,0,0,0,0,0,0,0,0,0.091,0.0911,0,0.1011,0.1013,0.1014,0.1157,0.1159,0.1162,0.1164,0.1302,0.1303,0.1305,0,0,0,0,0,0,0,0,0,0,0,0,0,0.0947,0.0945,0.091,0.0911,0.0912,0.1011,0.1013,0.1014,0.1157,0.1159,0.1162,0.1165,0.1301,0.1303,0.1305,0,0,0,0,0,0,0,0,0,0,0,0,0,0.0978,0.0944,0.091,0.0995,0.1003,0.1011,0.1013,0.1015,0.1156,0.1159,0.1163,0.1166,0.1301,0.1303,0.1305,0.1248,0,0,0.1312,0.1313,0,0,0,0,0,0,0,0,0.0976,0.0977,0.0981,0.0989,0.0998,0.1074,0.1077,0.1094,0.1155,0.1099,0.1164,0.1168,0.1226,0.1235,0.1246,0.1254,0.126,0.1312,0.1313,0.1314,0.1315,0,0,0,0,0,0,0,0.0974,0.0974,0.0951,0.0982,0.0993,0.1065,0.1072,0.1081,0.1142,0.1104,0.1114,0.1123,0.1232,0.1244,0.1251,0.1262,0.1312,0.1314,0.1315,0.1316,0.1448,0.145,0,0,0,0,0,0,0.0949,0.097,0.0948,0.0954,0.0995,0.106,0.1069,0.1047,0.1142,0.1159,0.112,0.1129,0.1238,0.1248,0.1256,0.133,0.1314,0.1316,0.1318,0.1446,0.1448,0.1451,0,0,0,0,0,0,0.0949,0.0945,0.0944,0.0967,0.0972,0.1055,0.103,0.1047,0.11,0.1154,0.1173,0.116,0.1242,0.1253,0.1319,0.1332,0.1317,0.1319,0.1443,0.1446,0.1449,0.139,0,0,0,0,0,0,0.0949,0.0943,0.0935,0.0963,0.0969,0.0982,0.1027,0.1047,0.1097,0.1112,0.1192,0.1207,0.1245,0.1315,0.1321,0.1334,0.1321,0.144,0.1445,0.1448,0.1389,0.1391,0.1392,0,0,0,0,0,0.0949,0.0957,0.0932,0.0931,0.0948,0.0982,0.0993,0.1066,0.1095,0.1125,0.119,0.1207,0.1347,0.1318,0.1324,0.1338,0.1438,0.1443,0.1448,0.1388,0.139,0.1392,0,0,0,0,0,0,0.0981,0.0971,0.0947,0.0949,0.0963,0.1007,0.1068,0.107,0.1138,0.1165,0.1214,0.1233,0.1303,0.1332,0.1299,0.1398,0.1402,0.1408,0.1355,0.1357,0.1359,0.1345,0.1323,0,0,0,0,0,0.0966,0.0972,0.0956,0.0964,0.0984,0.1011,0.1039,0.1056,0.111,0.1146,0.1194,0.126,0.1316,0.1348,0.1402,0.1428,0.145,0.1454,0.1456,0.1456,0.1456,0.1506,0.151,0.1467,0.1467,0.1467,0,0,0.0981,0.0979,0.0981,0.0972,0.1011,0.1009,0.1043,0.1089,0.1086,0.1143,0.1203,0.1262,0.1329,0.1385,0.1418,0.1414,0.148,0.1462,0.1461,0.1461,0.1511,0.1514,0.1518,0.147,0.1469,0.1469,0,0,0.1027,0.1016,0.1035,0.1026,0.1046,0.1051,0.1058,0.1086,0.1124,0.1146,0.1209,0.1277,0.1344,0.1399,0.1433,0.147,0.149,0.15,0.1482,0.153,0.1532,0.1535,0.1551,0.1555,0.1494,0.1494,0.1494,0,0.1071,0.1031,0.1051,0.1048,0.1047,0.1064,0.1057,0.1078,0.1113,0.1145,0.1173,0.13,0.135,0.1418,0.1445,0.1468,0.1493,0.1457,0.1526,0.153,0.1533,0.1549,0.1555,0.1492,0.1492,0.1492,0.1493,0,0.1062,0.1054,0.1088,0.1063,0.1064,0.1078,0.1068,0.1094,0.1125,0.1135,0.1223,0.1292,0.1375,0.1399,0.1429,0.1489,0.1496,0.1519,0.1504,0.1533,0.1549,0.1556,0.1489,0.149,0.149,0.1491,0,0,0.1122,0.1095,0.1092,0.1091,0.1061,0.1072,0.1076,0.1094,0.1119,0.1161,0.1205,0.1302,0.1351,0.1395,0.1445,0.1477,0.1512,0.1504,0.1508,0.1489,0.1599,0.1428,0.1419,0.1545,0.1546,0.1547,0.1591,0,0.1129,0.1118,0.1075,0.1072,0.1092,0.1072,0.1075,0.108,0.1116,0.1161,0.1234,0.1309,0.1345,0.1397,0.1432,0.1503,0.1532,0.1497,0.1602,0.1605,0.1423,0.1422,0.1291,0.1303,0.1597,0.1599,0.1599,0,0.1102,0.1114,0.1107,0.1106,0.111,0.1099,0.112,0.1116,0.116,0.1191,0.1257,0.1307,0.1381,0.1404,0.1514,0.1492,0.1545,0.1583,0.1586,0.1451,0.1446,0.1332,0.1305,0.1611,0.161,0.1609,0.1608,0,0.115,0.1126,0.1134,0.1118,0.1115,0.1136,0.1142,0.116,0.1168,0.1234,0.1251,0.1334,0.1394,0.1467,0.1535,0.1542,0.1626,0.165,0.1543,0.1531,0.1451,0.1428,0.1725,0.1725,0.1725,0.1725,0.1725,0,0.1171,0.1171,0.1171,0.1196,0.1194,0.1191,0.1216,0.1222,0.1243,0.1247,0.1298,0.1316,0.1416,0.1462,0.1527,0.153,0.1631,0.1526,0.1527,0.1424,0.1399,0.1702,0.1698,0.1727,0.1726,0.1726,0.1726,0,0.1214,0.12,0.122,0.1241,0.1237,0.1247,0.1238,0.1243,0.1281,0.1283,0.1305,0.133,0.137,0.1427,0.1529,0.1505,0.1541,0.1528,0.1368,0.1346,0.1418,0.1412,0.14,0.1395,0.139,0.1386,0.1382,0,0.122,0.1246,0.1264,0.1246,0.1261,0.1272,0.1258,0.1268,0.1259,0.1281,0.1268,0.1304,0.1281,0.1314,0.1289,0.1306,0.144,0.119,0.1159,0.1379,0.1384,0.1385,0.1386,0.105,0.1045,0.104,0.1036,0,0.1224,0.1239,0.1264,0.1241,0.1223,0.1199,0.1203,0.119,0.1191,0.1195,0.118,0.1171,0.1146,0.1045,0.1015,0.1032,0.1158,0.1083,0.1399,0.1115,0.1042,0.1048,0.1063,0.0993,0.0997,0.1001,0.1003,0.1005,0.1189,0.1187,0.1192,0.1176,0.1142,0.1097,0.1074,0.1072,0.1031,0.1003,0.1036,0.0953,0.0909,0.0733,0.0739,0.0742,0.0837,0.0824,0.0844,0.0868,0.0781,0.07,0.0571,0.0572,0.0574,0.0575,0.0576,0,0.1085,0.1106,0.1091,0.1037,0.0991,0.1027,0.098,0.0928,0.0871,0.0857,0.0834,0.0582,0.0495,0.0506,0.0411,0.0392,0.0464,0.0408,0.0505,0.0544,0.0579,0.0484,0.0192,0.0192,0.0191,0.0191,0,0,0.1,0.0938,0.0957,0.0854,0.0883,0.0787,0.0775,0.0727,0.0665,0.0524,0.0449,0.0446,0.0405,0.0243,0.0246,0.0213,0.0397,0.0209,0.0506,0.0656,0.0692,0.0792,0.0682,0,0,0,0,0]},{"header":{"parameterUnit":"m.s-1","parameterCategory":2,"la1":30.2991,"la2":30.254,"lo1":-89.0895,"lo2":-89.0444,"dy":0.0017,"dx":0.0017,"nx":28,"ny":28,"refTime":"2025-08-14T21:00:00:Z","depth":"2","parameterNumber":3,"parameterNumberName":"V-component_of_CURRENTS"},"data":[0,0,0,0,0,0,0,0,0,0,0,0,0,0,0,0,0,0,0,0,0,0,0,0,0,0,0,0,0,0,0,0,0,0,0,0,0,0,0,0,0,0,0,0,0,0,0,0,0,0,0,0,0,0,0,0,0,0,-0.0012,-0.0011,0,0.0057,0.0058,0.0058,0.0023,0.0021,0.0019,0.0017,0.0032,0.0034,0.0036,0,0,0,0,0,0,0,0,0,0,0,0,0,-0.0069,-0.0069,-0.0012,-0.0011,-0.001,0.0057,0.0058,0.0059,0.0023,0.0021,0.0019,0.0017,0.0031,0.0034,0.0036,0,0,0,0,0,0,0,0,0,0,0,0,0,-0.0027,-0.0069,-0.0012,-0.002,-0.002,0.0057,0.0058,0.0059,0.0024,0.0021,0.0018,0.0016,0.003,0.0033,0.0037,0.0111,0,0,0.0046,0.0048,0,0,0,0,0,0,0,0,-0.003,-0.0025,-0.002,-0.0019,-0.0019,0.0028,0.0043,0.0074,0.0024,0.0007,0.0017,0.0014,0.0028,0.0031,0.0051,0.0112,0.0112,0.0046,0.0048,0.005,0.0051,0,0,0,0,0,0,0,-0.0033,-0.0028,0.0015,-0.0019,-0.0018,0.0009,0.0011,0.0049,0.0031,0.0008,0.0006,0.0015,0.0027,0.0048,0.0051,0.0112,0.0046,0.0049,0.0051,0.0052,0.0158,0.0159,0,0,0,0,0,0,-0.0043,-0.0031,0.0013,0.0017,-0.0031,0.0012,0.0014,0.0016,0.0032,0.0032,0.0017,0.0013,0.0044,0.0047,0.0051,0.0084,0.005,0.0053,0.0054,0.0157,0.0158,0.0159,0,0,0,0,0,0,-0.0045,-0.004,0.001,-0.0005,0.0003,0.0015,0.0018,0.0019,0.0007,0.0039,0.0037,-0.0,0.0042,0.0047,0.0079,0.0086,0.0054,0.0057,0.0156,0.0157,0.0159,0.0186,0,0,0,0,0,0,-0.0047,-0.0041,-0.0052,-0.0006,0.0004,0.0047,0.0021,0.0022,0.0019,0.0013,0.0025,0.0025,0.004,0.0074,0.0082,0.009,0.0059,0.0155,0.0157,0.0158,0.0184,0.0188,0.0191,0,0,0,0,0,-0.0049,-0.0051,-0.0053,-0.0048,-0.0009,0.0048,0.0055,0.0055,0.002,0.003,0.0039,0.0023,0.0089,0.0079,0.0087,0.0096,0.0154,0.0156,0.0158,0.0182,0.0187,0.0191,0,0,0,0,0,0,-0.0092,-0.0053,-0.0055,-0.005,-0.0009,0.0041,0.0039,0.0044,0.0061,0.0038,0.0052,0.0057,0.0086,0.0092,0.0079,0.013,0.0113,0.0117,0.0128,0.0133,0.0137,0.0126,0.0062,0,0,0,0,0,-0.0101,-0.0093,-0.0044,-0.0042,-0.0031,-0.0001,0.0014,0.0024,0.005,0.0051,0.0065,0.0077,0.0111,0.0118,0.015,0.0188,0.0193,0.0193,0.0196,0.02,0.0197,0.0232,0.0239,0.0166,0.0166,0.0166,0,0,-0.0114,-0.0096,-0.0091,-0.005,-0.0032,0.0011,-0.0001,0.002,0.0056,0.0054,0.0081,0.0097,0.0126,0.0169,0.018,0.0167,0.0223,0.0202,0.0205,0.02,0.0235,0.0242,0.0249,0.0167,0.0167,0.0167,0,0,-0.0122,-0.0127,-0.0115,-0.0076,-0.004,-0.0005,-0.0005,0.0041,0.0048,0.0097,0.01,0.0123,0.0165,0.0198,0.0217,0.0263,0.0248,0.0254,0.0263,0.0298,0.0304,0.031,0.0323,0.0329,0.025,0.025,0.025,0,-0.0147,-0.0118,-0.01,-0.0069,-0.0039,-0.0016,0.0021,0.0055,0.0108,0.0122,0.0099,0.0168,0.0186,0.0249,0.0258,0.0272,0.0275,0.0244,0.0303,0.0308,0.0314,0.0326,0.0333,0.0252,0.0252,0.0252,0.0251,0,-0.0122,-0.0102,-0.0095,-0.0044,-0.0007,0.0027,0.0084,0.0109,0.0111,0.0145,0.0187,0.0223,0.025,0.0266,0.0275,0.0322,0.0307,0.0309,0.029,0.0323,0.0333,0.034,0.0254,0.0254,0.0253,0.0253,0,0,-0.0163,-0.0092,-0.0089,-0.0062,0.0008,0.0045,0.0098,0.0163,0.0182,0.0219,0.025,0.0306,0.029,0.031,0.0324,0.0354,0.0394,0.0336,0.0337,0.0345,0.0449,0.0414,0.0417,0.04,0.0401,0.0402,0.0441,0,-0.0151,-0.0095,-0.0053,0.001,0.0046,0.0093,0.0144,0.02,0.023,0.0268,0.0298,0.0326,0.0319,0.0315,0.035,0.0394,0.0412,0.0382,0.0418,0.0419,0.0381,0.0424,0.0416,0.0447,0.0447,0.0448,0.0449,0,-0.0133,-0.0094,-0.0035,0.0036,0.0051,0.0097,0.0163,0.021,0.0274,0.0287,0.0315,0.0329,0.0383,0.0357,0.0438,0.0413,0.042,0.0447,0.045,0.041,0.0396,0.0415,0.0459,0.046,0.0459,0.0458,0.0457,0,-0.0151,-0.0083,-0.004,-0.0009,0.008,0.0106,0.014,0.0206,0.0236,0.0283,0.0292,0.0357,0.0369,0.0417,0.0452,0.0441,0.0533,0.053,0.0505,0.0502,0.0499,0.0493,0.0567,0.0567,0.0567,0.0567,0.0567,0,-0.0138,-0.0099,-0.0052,-0.001,0.0036,0.0079,0.0127,0.0169,0.0211,0.0242,0.0276,0.0309,0.0378,0.0432,0.0467,0.0508,0.0541,0.0513,0.0516,0.0507,0.0501,0.0513,0.0506,0.0568,0.0568,0.0568,0.0567,0,-0.0142,-0.0105,-0.0051,0.0015,0.0041,0.0061,0.0121,0.0151,0.017,0.0211,0.0213,0.028,0.035,0.0419,0.0506,0.0511,0.0569,0.0561,0.0531,0.053,0.0509,0.0503,0.0554,0.0553,0.0553,0.0552,0.0551,0,-0.0137,-0.0118,-0.0042,-0.0001,0.0036,0.0072,0.0113,0.0138,0.016,0.0198,0.0218,0.0273,0.0357,0.047,0.05,0.0564,0.0558,0.0541,0.0522,0.0512,0.0511,0.0506,0.0501,0.0532,0.0532,0.0531,0.0531,0,-0.0137,-0.0122,-0.0061,0.0023,0.0069,0.0107,0.0145,0.0155,0.017,0.0204,0.0261,0.0328,0.0407,0.0487,0.0521,0.0547,0.0539,0.0529,0.0558,0.0523,0.0492,0.049,0.0487,0.0527,0.0527,0.0528,0.0528,0.0528,-0.0146,-0.0116,-0.0037,0.0052,0.0099,0.0134,0.0169,0.02,0.0235,0.0298,0.0334,0.0448,0.0467,0.0563,0.0539,0.0487,0.0515,0.0499,0.0501,0.0504,0.0481,0.0449,0.0471,0.0471,0.0471,0.0471,0.0471,0,-0.0142,-0.0089,-0.0008,0.0076,0.0118,0.0142,0.0201,0.0243,0.0295,0.0381,0.0473,0.0517,0.058,0.057,0.0487,0.0447,0.045,0.0423,0.0437,0.0443,0.0448,0.0422,0.0396,0.0395,0.0394,0.0394,0,0,-0.014,-0.0078,-0.0017,0.0074,0.0121,0.0162,0.0194,0.028,0.0377,0.0495,0.0568,0.0712,0.0662,0.0586,0.0521,0.0449,0.0457,0.0437,0.0508,0.0541,0.0546,0.0507,0.0475,0,0,0,0,0]}],[{"header":{"parameterUnit":"m.s-1","parameterCategory":2,"la1":30.2991,"la2":30.254,"lo1":-89.0895,"lo2":-89.0444,"dy":0.0017,"dx":0.0017,"nx":28,"ny":28,"refTime":"2025-08-14T21:00:00:Z","depth":"4","parameterNumber":2,"parameterNumberName":"U-component_of_CURRENTS"},"data":[0,0,0,0,0,0,0,0,0,0,0,0,0,0,0,0,0,0,0,0,0,0,0,0,0,0,0,0,0,0,0,0,0,0,0,0,0,0,0,0,0,0,0,0,0,0,0,0,0,0,0,0,0,0,0,0,0,0,-0.0474,-0.0475,0,-0.0513,-0.0514,-0.0514,-0.0547,-0.0547,-0.0548,-0.0548,-0.0619,-0.0621,-0.0622,0,0,0,0,0,0,0,0,0,0,0,0,0,-0.0461,-0.0461,-0.0474,-0.0475,-0.0475,-0.0513,-0.0514,-0.0514,-0.0547,-0.0547,-0.0548,-0.0548,-0.0619,-0.062,-0.0622,0,0,0,0,0,0,0,0,0,0,0,0,0,-0.048,-0.0461,-0.0474,-0.0496,-0.0498,-0.0513,-0.0514,-0.0515,-0.0547,-0.0547,-0.0548,-0.0548,-0.0618,-0.062,-0.0623,-0.0627,0,0,-0.063,-0.0631,0,0,0,0,0,0,0,0,-0.0479,-0.0481,-0.0492,-0.0494,-0.0497,-0.0526,-0.0535,-0.0554,-0.0547,-0.0529,-0.0548,-0.0548,-0.059,-0.0595,-0.0601,-0.0631,-0.0634,-0.063,-0.0631,-0.0632,-0.0633,0,0,0,0,0,0,0,-0.0478,-0.048,-0.049,-0.0493,-0.0496,-0.0515,-0.0518,-0.0539,-0.0557,-0.053,-0.0533,-0.0536,-0.0592,-0.0599,-0.0603,-0.0635,-0.063,-0.0632,-0.0634,-0.0634,-0.0632,-0.063,0,0,0,0,0,0,-0.047,-0.0478,-0.0489,-0.0491,-0.0489,-0.0515,-0.0518,-0.0516,-0.0556,-0.0562,-0.0536,-0.0538,-0.0594,-0.06,-0.0606,-0.0576,-0.0632,-0.0635,-0.0636,-0.0633,-0.0631,-0.063,0,0,0,0,0,0,-0.047,-0.0471,-0.0487,-0.0486,-0.0489,-0.0514,-0.0512,-0.0517,-0.0546,-0.056,-0.0567,-0.0563,-0.0595,-0.0602,-0.0619,-0.0581,-0.0636,-0.0638,-0.0635,-0.0632,-0.063,-0.0541,0,0,0,0,0,0,-0.0469,-0.047,-0.0487,-0.0485,-0.0489,-0.0512,-0.0512,-0.0517,-0.0546,-0.055,-0.0586,-0.0591,-0.0596,-0.0615,-0.0621,-0.0585,-0.064,-0.0637,-0.0634,-0.0631,-0.0546,-0.0536,-0.0528,0,0,0,0,0,-0.0468,-0.0482,-0.0487,-0.049,-0.0504,-0.0513,-0.0518,-0.0537,-0.0547,-0.0565,-0.0569,-0.0591,-0.0601,-0.0617,-0.0624,-0.0587,-0.0638,-0.0635,-0.0631,-0.055,-0.0538,-0.0528,0,0,0,0,0,0,-0.0479,-0.0486,-0.0493,-0.0507,-0.0518,-0.0519,-0.0549,-0.0551,-0.057,-0.0579,-0.0587,-0.0593,-0.0583,-0.0607,-0.0624,-0.0576,-0.0618,-0.0616,-0.0553,-0.0542,-0.0533,-0.0567,-0.0642,0,0,0,0,0,-0.049,-0.052,-0.0509,-0.0534,-0.0537,-0.0547,-0.0562,-0.0565,-0.0572,-0.0583,-0.0576,-0.0578,-0.0571,-0.0578,-0.0577,-0.0572,-0.0631,-0.0548,-0.0538,-0.0531,-0.0562,-0.0642,-0.0645,-0.0618,-0.0619,-0.0619,0,0,-0.0506,-0.0517,-0.0536,-0.0543,-0.0559,-0.0555,-0.0559,-0.0582,-0.0566,-0.0587,-0.0564,-0.0553,-0.0564,-0.0534,-0.0532,-0.0553,-0.0554,-0.0526,-0.0519,-0.0556,-0.0639,-0.0643,-0.0645,-0.0616,-0.0617,-0.0617,0,0,-0.0539,-0.0559,-0.0581,-0.0592,-0.0609,-0.0595,-0.0602,-0.0584,-0.0572,-0.0538,-0.0539,-0.0533,-0.0494,-0.0505,-0.0505,-0.0463,-0.0503,-0.0423,-0.0407,-0.0483,-0.0487,-0.0492,-0.0513,-0.0521,-0.0419,-0.0418,-0.0418,0,-0.0552,-0.0576,-0.0592,-0.0606,-0.0612,-0.0609,-0.0607,-0.0591,-0.0568,-0.0559,-0.052,-0.0491,-0.0491,-0.0503,-0.0445,-0.0448,-0.0468,-0.0444,-0.0475,-0.0481,-0.0487,-0.0509,-0.0519,-0.0414,-0.0414,-0.0415,-0.0415,0,-0.0581,-0.061,-0.0629,-0.0637,-0.0638,-0.0652,-0.0611,-0.0591,-0.0545,-0.0521,-0.0493,-0.0474,-0.0465,-0.0431,-0.0408,-0.0432,-0.042,-0.0454,-0.0509,-0.0485,-0.0508,-0.0519,-0.0407,-0.0409,-0.041,-0.0411,0,0,-0.0568,-0.0632,-0.064,-0.066,-0.0656,-0.0655,-0.0622,-0.0593,-0.0588,-0.0524,-0.0518,-0.0457,-0.0445,-0.0447,-0.0427,-0.0465,-0.0476,-0.0445,-0.0451,-0.0477,-0.0589,-0.0421,-0.0418,-0.0499,-0.0501,-0.0504,-0.0566,0,-0.0581,-0.0627,-0.0636,-0.0661,-0.0674,-0.0658,-0.0626,-0.0605,-0.0559,-0.0543,-0.0536,-0.051,-0.0451,-0.0424,-0.0453,-0.0482,-0.051,-0.0454,-0.0602,-0.0606,-0.047,-0.0428,-0.0512,-0.0575,-0.0578,-0.058,-0.0582,0,-0.0582,-0.0623,-0.0658,-0.0683,-0.0681,-0.0673,-0.0646,-0.0616,-0.0604,-0.0567,-0.056,-0.0543,-0.0558,-0.0518,-0.0587,-0.0537,-0.0549,-0.0576,-0.0581,-0.048,-0.0462,-0.0619,-0.0604,-0.0602,-0.0601,-0.0599,-0.0598,0,-0.0579,-0.0622,-0.0659,-0.0676,-0.0695,-0.0683,-0.0654,-0.0629,-0.0604,-0.0593,-0.0577,-0.0606,-0.0592,-0.065,-0.0603,-0.0608,-0.0682,-0.0728,-0.0605,-0.0593,-0.0772,-0.0768,-0.0814,-0.0814,-0.0814,-0.0814,-0.0814,0,-0.0573,-0.0608,-0.0667,-0.0703,-0.0705,-0.0693,-0.0675,-0.0647,-0.0629,-0.0612,-0.059,-0.0578,-0.0618,-0.0625,-0.064,-0.0604,-0.0713,-0.0601,-0.0605,-0.072,-0.0709,-0.0777,-0.0772,-0.0816,-0.0816,-0.0815,-0.0815,0,-0.0547,-0.0614,-0.0672,-0.0717,-0.072,-0.0709,-0.0673,-0.0642,-0.0626,-0.0609,-0.0597,-0.0571,-0.0544,-0.0556,-0.0628,-0.0611,-0.0639,-0.0603,-0.0663,-0.0671,-0.0506,-0.0495,-0.0541,-0.0535,-0.0531,-0.0527,-0.0524,0,-0.0536,-0.0575,-0.0676,-0.0687,-0.0702,-0.0686,-0.0652,-0.0636,-0.0599,-0.0588,-0.0571,-0.0534,-0.0501,-0.0475,-0.0495,-0.0509,-0.0497,-0.0518,-0.0566,-0.0482,-0.0482,-0.0479,-0.0474,-0.0517,-0.0516,-0.0515,-0.0513,0,-0.0503,-0.0565,-0.0615,-0.0647,-0.0646,-0.0628,-0.0584,-0.058,-0.0549,-0.0564,-0.0512,-0.0478,-0.0426,-0.0415,-0.0358,-0.0393,-0.0524,-0.0473,-0.0486,-0.0531,-0.0454,-0.0458,-0.0459,-0.0498,-0.05,-0.0502,-0.0503,0,-0.0479,-0.0505,-0.0581,-0.059,-0.0579,-0.0544,-0.0549,-0.0494,-0.0487,-0.0485,-0.0472,-0.0432,-0.0427,-0.0351,-0.0334,-0.029,-0.033,-0.0375,-0.0393,-0.0411,-0.0324,-0.0204,-0.0175,0,0,0,0,0,-0.044,-0.0478,-0.0486,-0.0526,-0.0484,-0.0494,-0.0474,-0.0478,-0.0504,-0.0446,-0.0456,-0.0395,-0.0324,-0.0311,-0.0241,-0.0276,-0.033,-0.0196,-0.0392,-0.0412,-0.043,-0.0332,0,0,0,0,0,0,-0.0438,-0.047,-0.0495,-0.0436,-0.0428,-0.0397,-0.0403,-0.0424,-0.0395,-0.0418,-0.0371,-0.0379,-0.0304,-0.0352,-0.0238,-0.0229,-0.0346,-0.0174,-0.0172,-0.0402,-0.0418,-0.0433,-0.0338,0,0,0,0,0]},{"header":{"parameterUnit":"m.s-1","parameterCategory":2,"la1":30.2991,"la2":30.254,"lo1":-89.0895,"lo2":-89.0444,"dy":0.0017,"dx":0.0017,"nx":28,"ny":28,"refTime":"2025-08-14T21:00:00:Z","depth":"4","parameterNumber":3,"parameterNumberName":"V-component_of_CURRENTS"},"data":[0,0,0,0,0,0,0,0,0,0,0,0,0,0,0,0,0,0,0,0,0,0,0,0,0,0,0,0,0,0,0,0,0,0,0,0,0,0,0,0,0,0,0,0,0,0,0,0,0,0,0,0,0,0,0,0,0,0,0.0115,0.0115,0,0.0119,0.0119,0.0119,0.0158,0.0159,0.016,0.0161,0.0217,0.0218,0.0218,0,0,0,0,0,0,0,0,0,0,0,0,0,0.0114,0.0114,0.0115,0.0115,0.0115,0.0119,0.0119,0.012,0.0158,0.0159,0.016,0.0161,0.0217,0.0218,0.0218,0,0,0,0,0,0,0,0,0,0,0,0,0,0.0116,0.0114,0.0115,0.0135,0.0137,0.0119,0.0119,0.012,0.0158,0.0159,0.0161,0.0162,0.0217,0.0217,0.0218,0.0194,0,0,0.0221,0.0221,0,0,0,0,0,0,0,0,0.0116,0.0116,0.0132,0.0134,0.0136,0.014,0.014,0.0147,0.0157,0.015,0.0161,0.0163,0.0195,0.0198,0.0194,0.0197,0.0199,0.0221,0.0222,0.0222,0.0222,0,0,0,0,0,0,0,0.0116,0.0116,0.0117,0.0132,0.0134,0.0135,0.0137,0.0141,0.0165,0.015,0.0153,0.0153,0.0197,0.0193,0.0196,0.02,0.0221,0.0222,0.0222,0.0223,0.0175,0.0173,0,0,0,0,0,0,0.0115,0.0116,0.0117,0.0117,0.0129,0.0134,0.0136,0.0137,0.0164,0.0169,0.0152,0.0155,0.0191,0.0195,0.0198,0.0201,0.0222,0.0223,0.0223,0.0176,0.0174,0.0172,0,0,0,0,0,0,0.0115,0.0115,0.0116,0.0117,0.0117,0.0133,0.0133,0.0136,0.0169,0.0165,0.0171,0.0186,0.0192,0.0197,0.021,0.0203,0.0223,0.0224,0.0179,0.0176,0.0173,0.0188,0,0,0,0,0,0,0.0115,0.0115,0.0118,0.0117,0.0117,0.0117,0.0132,0.0135,0.0165,0.017,0.0195,0.02,0.0194,0.0208,0.021,0.0204,0.0225,0.0181,0.0177,0.0174,0.0189,0.0186,0.0183,0,0,0,0,0,0.0115,0.0112,0.0118,0.0118,0.0119,0.0117,0.0117,0.0133,0.0166,0.0171,0.0184,0.0201,0.0187,0.0208,0.0211,0.0205,0.0182,0.0178,0.0174,0.0191,0.0186,0.0183,0,0,0,0,0,0,0.0107,0.0115,0.0122,0.0121,0.0124,0.0124,0.0134,0.0153,0.0168,0.0198,0.0194,0.0198,0.0195,0.0194,0.0217,0.0173,0.0181,0.0177,0.0192,0.0188,0.0185,0.0213,0.0225,0,0,0,0,0,0.0106,0.0118,0.0115,0.0119,0.0124,0.0139,0.0145,0.017,0.018,0.0192,0.0198,0.0196,0.0172,0.0181,0.0162,0.016,0.0172,0.0148,0.0145,0.0142,0.0162,0.0138,0.0136,0.0159,0.0159,0.0159,0,0,0.0103,0.0113,0.0117,0.012,0.0131,0.0128,0.0148,0.0182,0.0183,0.0195,0.0205,0.0193,0.0165,0.0145,0.0144,0.0155,0.0144,0.0137,0.0136,0.0157,0.0134,0.0132,0.0131,0.0156,0.0157,0.0157,0,0,0.0102,0.0117,0.0123,0.013,0.0158,0.0156,0.0174,0.0192,0.0206,0.0215,0.0201,0.0189,0.0179,0.0139,0.012,0.0088,0.0121,0.0081,0.0104,0.008,0.0079,0.0078,0.0117,0.012,0.0088,0.0088,0.0088,0,0.0098,0.0106,0.0122,0.0131,0.0136,0.0171,0.0175,0.018,0.0199,0.0199,0.0226,0.0178,0.0166,0.0111,0.0101,0.0084,0.0105,0.0129,0.008,0.0079,0.0078,0.0118,0.012,0.0088,0.0088,0.0088,0.0088,0,0.0099,0.0109,0.0119,0.0132,0.0133,0.0158,0.016,0.0176,0.0207,0.0204,0.0189,0.0166,0.0145,0.0118,0.0114,0.0081,0.0112,0.0076,0.0103,0.0078,0.012,0.0123,0.0088,0.0088,0.0088,0.0088,0,0,0.0084,0.011,0.0118,0.0123,0.015,0.015,0.0153,0.0145,0.0153,0.0169,0.0157,0.0119,0.0141,0.0119,0.0098,0.0084,0.0104,0.0101,0.0099,0.0164,0.0115,0.0091,0.0092,0.0071,0.0071,0.0071,0.0158,0,0.0082,0.0089,0.0104,0.0109,0.0109,0.0135,0.0125,0.0133,0.0143,0.0136,0.0125,0.0117,0.0127,0.014,0.0123,0.0093,0.0109,0.0088,0.0109,0.0111,0.0111,0.0091,0.007,0.016,0.0161,0.0162,0.0162,0,0.0077,0.0085,0.0093,0.0098,0.0103,0.0124,0.0128,0.0132,0.0126,0.0143,0.0147,0.0137,0.0126,0.0138,0.0128,0.0125,0.0146,0.0131,0.0133,0.011,0.0089,0.018,0.0167,0.0167,0.0166,0.0166,0.0166,0,0.0053,0.007,0.0079,0.0088,0.0103,0.0133,0.0154,0.0157,0.0166,0.0177,0.019,0.0162,0.0179,0.0169,0.0165,0.0164,0.0153,0.0132,0.0137,0.0138,0.0133,0.0133,0.0144,0.0144,0.0144,0.0143,0.0143,0,0.0038,0.0041,0.0093,0.0104,0.014,0.0157,0.0197,0.0212,0.023,0.0235,0.0229,0.022,0.0192,0.017,0.0171,0.0168,0.0168,0.0156,0.0146,0.0139,0.0138,0.0138,0.0136,0.0147,0.0146,0.0145,0.0145,0,0.0004,0.0035,0.0045,0.0096,0.014,0.0176,0.0261,0.0265,0.0307,0.0315,0.0331,0.0289,0.028,0.024,0.0213,0.0187,0.0167,0.0172,0.0211,0.02,0.0185,0.0182,0.0204,0.0204,0.0203,0.0203,0.0203,0,-0.0016,-0.0004,0.006,0.0107,0.0159,0.0235,0.0282,0.0327,0.0328,0.0345,0.033,0.0329,0.03,0.0261,0.0213,0.0211,0.0198,0.0203,0.0164,0.0197,0.0186,0.0184,0.0182,0.0202,0.0202,0.0202,0.0202,0,-0.0048,-0.0014,0.0004,0.0114,0.0193,0.0232,0.0308,0.0319,0.0347,0.0364,0.0352,0.033,0.0306,0.0259,0.0256,0.024,0.0189,0.0199,0.02,0.0164,0.0195,0.0183,0.0182,0.0201,0.0201,0.0201,0.0201,0,-0.0055,-0.0038,0.003,0.0124,0.019,0.0233,0.0265,0.0297,0.032,0.0341,0.033,0.0324,0.0315,0.0276,0.0256,0.0244,0.0245,0.0223,0.0222,0.0223,0.0175,0.0213,0.0226,0,0,0,0,0,-0.0057,-0.0009,0.0056,0.0142,0.018,0.0238,0.0275,0.0288,0.0314,0.0312,0.0336,0.0321,0.0303,0.0274,0.0267,0.024,0.0228,0.0225,0.0199,0.0194,0.0196,0.0128,0,0,0,0,0,0,-0.0041,0.0011,0.0054,0.0134,0.0194,0.0242,0.0261,0.0274,0.0272,0.0299,0.029,0.0307,0.0285,0.0329,0.0269,0.0262,0.0237,0.0224,0.0223,0.0193,0.0195,0.0196,0.0127,0,0,0,0,0]}]]